Block Island, RI

6:59 PM EDT on September 28, 2016 (GMT -0400)
Block Island State

Weather History for KBID - March, 2014

Change the Weather History Date:

Tuesday, March 11, 2014

  Actual Average Record
Temperature  
Mean Temperature 46 °F -  
Max Temperature 53 °F 43 °F 60 °F (2016)
Min Temperature 39 °F 30 °F 15 °F (1953)
Degree Days  
Heating Degree Days 19    
Moisture  
Dew Point 34 °F    
Average Humidity 67    
Maximum Humidity 87    
Minimum Humidity 47    
Precipitation  
Precipitation 0.00 in - - ()
Sea Level Pressure  
Sea Level Pressure 29.61 in    
Wind  
Wind Speed 12 mph (WSW)    
Max Wind Speed 17 mph    
Max Gust Speed 23 mph    
Visibility 10 miles    
Events      
Averages and records for this station are not official NWS values.
T = Trace of Precipitation, MM = Missing Value Source: NWS Daily Summary

Daily Weather History Graph

Daily Weather History Graph

Search for Another Location

Airport or City:

Trip Planner

Search our weather history database for the weather conditions in past years. The results will help you decide how hot, cold, wet, or windy it might be!

Date:

Astronomy

Mar. 11, 2014 Rise Set
Actual Time 7:04 AM EDT 6:48 PM EDT
Civil Twilight 6:37 AM EDT 7:16 PM EDT
Nautical Twilight 6:05 AM EDT 7:48 PM EDT
Astronomical Twilight 5:33 AM EDT 8:20 PM EDT
Moon 2:20 PM EDT (3/11) 3:58 AM EDT (3/11)
Length of Visible Light 12h 38m
Length of Day
11h 43m
Waxing Gibbous, 78% of the Moon is Illuminated
Mar 11
Waxing Gibbous
Mar 16
Full
Mar 23
Last Quarter
Mar 30
New
Apr 7
First Quarter

Hourly Weather History & Observations

Time (EDT) Temp. Windchill Dew Point Humidity Pressure Visibility Wind Dir Wind Speed Gust Speed Precip Events Conditions
12:15 AM 39.2 °F 32.5 °F 33.8 °F 81% 29.64 in 10.0 mi South 10.4 mph - N/A   Mostly Cloudy
12:35 AM 39.2 °F 31.6 °F 33.8 °F 81% 29.63 in 10.0 mi South 12.7 mph - N/A   Overcast
12:55 AM 39.2 °F 32.0 °F 33.8 °F 81% 29.62 in 10.0 mi South 11.5 mph - N/A   Overcast
1:15 AM 39.2 °F 31.6 °F 33.8 °F 81% 29.61 in 10.0 mi South 12.7 mph - N/A   Overcast
1:35 AM 39.2 °F 31.6 °F 35.6 °F 87% 29.59 in 10.0 mi South 12.7 mph - N/A   Overcast
1:55 AM 39.2 °F 31.6 °F 35.6 °F 87% 29.59 in 10.0 mi South 12.7 mph - N/A   Overcast
2:15 AM 39.2 °F 31.6 °F 35.6 °F 87% 29.58 in 10.0 mi South 12.7 mph - N/A   Overcast
2:35 AM 39.2 °F 31.2 °F 35.6 °F 87% 29.57 in 10.0 mi South 13.8 mph - N/A   Overcast
2:55 AM 39.2 °F 32.0 °F 35.6 °F 87% 29.56 in 10.0 mi South 11.5 mph - N/A   Mostly Cloudy
3:15 AM 39.2 °F 31.6 °F 35.6 °F 87% 29.55 in 8.0 mi South 12.7 mph - N/A   Clear
3:35 AM 39.2 °F 32.0 °F 35.6 °F 87% 29.54 in 8.0 mi South 11.5 mph - N/A   Clear
3:55 AM 39.2 °F 32.0 °F 35.6 °F 87% 29.53 in 8.0 mi SSW 11.5 mph - N/A   Clear
4:15 AM 39.2 °F 32.0 °F 35.6 °F 87% 29.52 in 9.0 mi SSW 11.5 mph - N/A   Clear
4:35 AM 41.0 °F 33.5 °F 35.6 °F 81% 29.52 in 10.0 mi SSW 13.8 mph - N/A   Clear
4:55 AM 41.0 °F 33.9 °F 35.6 °F 81% 29.53 in 10.0 mi SW 12.7 mph - N/A   Clear
5:15 AM 39.2 °F 31.6 °F 35.6 °F 87% 29.53 in 10.0 mi WSW 12.7 mph - N/A   Clear
5:35 AM 39.2 °F 32.0 °F 35.6 °F 87% 29.53 in 10.0 mi WSW 11.5 mph - N/A   Clear
5:55 AM 39.2 °F 34.2 °F 33.8 °F 81% 29.54 in 10.0 mi West 6.9 mph - N/A   Clear
6:15 AM 39.2 °F 33.6 °F 33.8 °F 81% 29.54 in 10.0 mi West 8.1 mph - N/A   Clear
6:35 AM 39.2 °F 32.5 °F 33.8 °F 81% 29.55 in 10.0 mi West 10.4 mph - N/A   Clear
6:55 AM 39.2 °F 32.0 °F 33.8 °F 81% 29.56 in 10.0 mi West 11.5 mph - N/A   Clear
7:15 AM 39.2 °F 32.5 °F 32.0 °F 75% 29.56 in 10.0 mi West 10.4 mph 16.1 mph N/A   Clear
7:35 AM 39.2 °F 32.0 °F 32.0 °F 75% 29.57 in 10.0 mi West 11.5 mph - N/A   Clear
7:55 AM 39.2 °F 32.0 °F 33.8 °F 81% 29.58 in 10.0 mi West 11.5 mph - N/A   Clear
8:15 AM 39.2 °F 31.6 °F 32.0 °F 75% 29.58 in 10.0 mi West 12.7 mph - N/A   Clear
8:35 AM 39.2 °F 31.2 °F 32.0 °F 75% 29.59 in 10.0 mi West 13.8 mph - N/A   Clear
8:55 AM 41.0 °F 34.7 °F 32.0 °F 70% 29.60 in 10.0 mi West 10.4 mph 17.3 mph N/A   Clear
9:15 AM 42.8 °F 36.2 °F 32.0 °F 66% 29.60 in 10.0 mi West 12.7 mph 17.3 mph N/A   Clear
9:35 AM 42.8 °F 36.2 °F 32.0 °F 66% 29.60 in 10.0 mi West 12.7 mph 19.6 mph N/A   Clear
9:55 AM 42.8 °F 36.2 °F 32.0 °F 66% 29.60 in 10.0 mi West 12.7 mph - N/A   Clear
10:15 AM 42.8 °F 36.2 °F 32.0 °F 66% 29.60 in 10.0 mi West 12.7 mph - N/A   Clear
10:35 AM 42.8 °F 36.6 °F 32.0 °F 66% 29.60 in 10.0 mi West 11.5 mph - N/A   Clear
10:55 AM 44.6 °F 38.4 °F 32.0 °F 61% 29.60 in 10.0 mi West 12.7 mph 17.3 mph N/A   Clear
11:15 AM 44.6 °F 38.8 °F 32.0 °F 61% 29.60 in 10.0 mi West 11.5 mph 17.3 mph N/A   Clear
11:35 AM 44.6 °F 38.8 °F 33.8 °F 66% 29.59 in 10.0 mi West 11.5 mph - N/A   Clear
11:55 AM 46.4 °F 41.1 °F 33.8 °F 62% 29.59 in 10.0 mi West 11.5 mph - N/A   Clear
12:15 PM 46.4 °F 40.7 °F 33.8 °F 62% 29.58 in 10.0 mi West 12.7 mph - N/A   Clear
12:35 PM 46.4 °F 40.1 °F 33.8 °F 62% 29.59 in 10.0 mi West 15.0 mph 19.6 mph N/A   Clear
12:55 PM 48.2 °F - 33.8 °F 58% 29.59 in 10.0 mi WSW 15.0 mph - N/A   Clear
1:15 PM 48.2 °F - 33.8 °F 58% 29.59 in 10.0 mi WSW 15.0 mph - N/A   Clear
1:35 PM 51.8 °F - 35.6 °F 54% 29.59 in 10.0 mi WSW 17.3 mph 23.0 mph N/A   Clear
1:55 PM 53.6 °F - 35.6 °F 51% 29.60 in 10.0 mi WSW 16.1 mph 21.9 mph N/A   Clear
2:15 PM 53.6 °F - 35.6 °F 51% 29.59 in 10.0 mi West 17.3 mph 23.0 mph N/A   Clear
2:35 PM 51.8 °F - 35.6 °F 54% 29.59 in 10.0 mi West 17.3 mph 21.9 mph N/A   Clear
2:55 PM 53.6 °F - 35.6 °F 51% 29.59 in 10.0 mi West 13.8 mph 21.9 mph N/A   Clear
3:15 PM 53.6 °F - 35.6 °F 51% 29.59 in 10.0 mi WSW 15.0 mph 18.4 mph N/A   Clear
3:35 PM 53.6 °F - 33.8 °F 47% 29.60 in 10.0 mi WSW 13.8 mph 19.6 mph N/A   Clear
3:55 PM 51.8 °F - 35.6 °F 54% 29.60 in 10.0 mi WSW 11.5 mph - N/A   Clear
4:15 PM 53.6 °F - 35.6 °F 51% 29.60 in 10.0 mi WSW 12.7 mph - N/A   Clear
4:35 PM 53.6 °F - 33.8 °F 47% 29.61 in 10.0 mi WSW 10.4 mph - N/A   Clear
4:55 PM 53.6 °F - 33.8 °F 47% 29.62 in 10.0 mi WSW 11.5 mph - N/A   Clear
5:15 PM 53.6 °F - 33.8 °F 47% 29.62 in 10.0 mi WSW 12.7 mph 17.3 mph N/A   Clear
5:35 PM 51.8 °F - 33.8 °F 50% 29.62 in 10.0 mi WSW 11.5 mph - N/A   Clear
5:55 PM 51.8 °F - 32.0 °F 47% 29.63 in 10.0 mi WSW 11.5 mph - N/A   Clear
6:15 PM 51.8 °F - 32.0 °F 47% 29.64 in 10.0 mi WSW 11.5 mph - N/A   Clear
6:35 PM 50.0 °F - 32.0 °F 50% 29.65 in 10.0 mi WSW 9.2 mph - N/A   Clear
6:55 PM 48.2 °F - 32.0 °F 54% 29.66 in 10.0 mi WSW 10.4 mph - N/A   Clear
7:15 PM 48.2 °F - 32.0 °F 54% 29.67 in 10.0 mi WSW 10.4 mph - N/A   Clear
7:35 PM 46.4 °F 41.9 °F 32.0 °F 57% 29.67 in 10.0 mi SW 9.2 mph - N/A   Clear
7:55 PM 46.4 °F 42.4 °F 32.0 °F 57% 29.68 in 10.0 mi WSW 8.1 mph - N/A   Clear
8:15 PM 46.4 °F 41.9 °F 32.0 °F 57% 29.68 in 10.0 mi SW 9.2 mph - N/A   Clear
8:35 PM 46.4 °F 42.4 °F 32.0 °F 57% 29.69 in 10.0 mi SW 8.1 mph - N/A   Clear
8:55 PM 46.4 °F 41.1 °F 33.8 °F 62% 29.70 in 10.0 mi SW 11.5 mph - N/A   Clear
9:15 PM 46.4 °F 40.7 °F 33.8 °F 62% 29.71 in 10.0 mi SW 12.7 mph - N/A   Clear
9:35 PM 46.4 °F 41.1 °F 33.8 °F 62% 29.71 in 10.0 mi WSW 11.5 mph - N/A   Clear
9:55 PM 46.4 °F 40.7 °F 33.8 °F 62% 29.72 in 10.0 mi WSW 12.7 mph - N/A   Clear
10:15 PM 44.6 °F 39.7 °F 33.8 °F 66% 29.73 in 10.0 mi SW 9.2 mph - N/A   Clear
10:35 PM 42.8 °F 37.0 °F 35.6 °F 76% 29.72 in 10.0 mi WSW 10.4 mph - N/A   Clear
10:55 PM 42.8 °F 38.0 °F 35.6 °F 76% 29.71 in 10.0 mi WSW 8.1 mph - N/A   Clear
11:15 PM 42.8 °F 38.0 °F 33.8 °F 70% 29.71 in 10.0 mi WSW 8.1 mph - N/A   Clear
11:35 PM 42.8 °F 38.6 °F 35.6 °F 76% 29.71 in 10.0 mi WSW 6.9 mph - N/A   Clear
11:55 PM 44.6 °F 41.4 °F 35.6 °F 71% 29.71 in 10.0 mi WSW 5.8 mph - N/A   Clear